Year,Month,Day,Hour,Minute,Value (Times are PST for windspeed in km/hr)
2016,11,02,00,00,7.00
2016,11,02,00,01,7.80
2016,11,02,00,02,13.40
2016,11,02,00,03,13.80
2016,11,02,00,04,22.50
2016,11,02,00,05,15.20
2016,11,02,00,06,14.60
2016,11,02,00,07,21.30
2016,11,02,00,08,17.00
2016,11,02,00,09,16.30
2016,11,02,00,10,20.80
2016,11,02,00,11,15.90
2016,11,02,00,12,16.30
2016,11,02,00,13,17.70
2016,11,02,00,14,16.30
2016,11,02,00,15,16.00
2016,11,02,00,16,17.00
2016,11,02,00,17,21.20
2016,11,02,00,18,15.30
2016,11,02,00,19,15.00
2016,11,02,00,20,23.10
2016,11,02,00,21,19.70
2016,11,02,00,22,16.50
2016,11,02,00,23,11.20
2016,11,02,00,24,12.40
2016,11,02,00,25,15.80
2016,11,02,00,26,16.80
2016,11,02,00,27,20.20
2016,11,02,00,28,20.00
2016,11,02,00,29,18.70
2016,11,02,00,30,19.30
2016,11,02,00,31,20.90
2016,11,02,00,32,19.50
2016,11,02,00,33,21.40
2016,11,02,00,34,23.70
2016,11,02,00,35,15.90
2016,11,02,00,36,23.40
2016,11,02,00,37,14.70
2016,11,02,00,38,17.90
2016,11,02,00,39,18.10
2016,11,02,00,40,16.30
2016,11,02,00,41,14.60
2016,11,02,00,42,16.20
2016,11,02,00,43,16.00
2016,11,02,00,44,20.70
2016,11,02,00,45,22.40
2016,11,02,00,46,18.20
2016,11,02,00,47,24.60
2016,11,02,00,48,16.40
2016,11,02,00,49,17.70
2016,11,02,00,50,19.70
2016,11,02,00,51,16.80
2016,11,02,00,52,22.80
2016,11,02,00,53,19.20
2016,11,02,00,54,20.30
2016,11,02,00,55,15.90
2016,11,02,00,56,16.10
2016,11,02,00,57,11.90
2016,11,02,00,58,13.40
2016,11,02,00,59,16.50
2016,11,02,01,00,16.10
2016,11,02,01,01,20.50
2016,11,02,01,02,20.40
2016,11,02,01,03,17.50
2016,11,02,01,04,20.90
2016,11,02,01,05,19.70
2016,11,02,01,06,16.60
2016,11,02,01,07,15.60
2016,11,02,01,08,18.30
2016,11,02,01,09,16.90
2016,11,02,01,10,19.80
2016,11,02,01,11,17.10
2016,11,02,01,12,14.10
2016,11,02,01,13,16.00
2016,11,02,01,14,13.40
2016,11,02,01,15,15.50
2016,11,02,01,16,22.60
2016,11,02,01,17,22.10
2016,11,02,01,18,24.10
2016,11,02,01,19,25.10
2016,11,02,01,20,22.60
2016,11,02,01,21,18.30
2016,11,02,01,22,20.90
2016,11,02,01,23,19.70
2016,11,02,01,24,15.90
2016,11,02,01,25,21.30
2016,11,02,01,26,21.30
2016,11,02,01,27,18.90
2016,11,02,01,28,10.10
2016,11,02,01,29,13.80
2016,11,02,01,30,23.60
2016,11,02,01,31,17.60
2016,11,02,01,32,12.00
2016,11,02,01,33,14.10
2016,11,02,01,34,18.30
2016,11,02,01,35,18.50
2016,11,02,01,36,15.40
2016,11,02,01,37,13.30
2016,11,02,01,38,20.20
2016,11,02,01,39,17.80
2016,11,02,01,40,16.70
2016,11,02,01,41,23.00
2016,11,02,01,42,22.30
2016,11,02,01,43,21.80
2016,11,02,01,44,24.20
2016,11,02,01,45,20.60
2016,11,02,01,46,22.70
2016,11,02,01,47,14.50
2016,11,02,01,48,10.90
2016,11,02,01,49,19.10
2016,11,02,01,50,23.80
2016,11,02,01,51,22.80
2016,11,02,01,52,17.40
2016,11,02,01,53,18.10
2016,11,02,01,54,15.80
2016,11,02,01,55,18.80
2016,11,02,01,56,18.50
2016,11,02,01,57,18.70
2016,11,02,01,58,21.10
2016,11,02,01,59,25.00
2016,11,02,02,00,22.00
2016,11,02,02,01,27.00
2016,11,02,02,02,23.70
2016,11,02,02,03,20.30
2016,11,02,02,04,12.20
2016,11,02,02,05,22.90
2016,11,02,02,06,17.80
2016,11,02,02,07,15.60
2016,11,02,02,08,24.60
2016,11,02,02,09,22.80
2016,11,02,02,10,24.10
2016,11,02,02,11,23.50
2016,11,02,02,12,24.30
2016,11,02,02,13,20.60
2016,11,02,02,14,18.30
2016,11,02,02,15,18.00
2016,11,02,02,16,15.40
2016,11,02,02,17,16.70
2016,11,02,02,18,16.90
2016,11,02,02,19,19.60
2016,11,02,02,20,22.70
2016,11,02,02,21,18.20
2016,11,02,02,22,17.90
2016,11,02,02,23,22.40
2016,11,02,02,24,17.90
2016,11,02,02,25,19.10
2016,11,02,02,26,20.50
2016,11,02,02,27,18.70
2016,11,02,02,28,23.30
2016,11,02,02,29,20.40
2016,11,02,02,30,13.90
2016,11,02,02,31,19.70
2016,11,02,02,32,26.50
2016,11,02,02,33,23.30
2016,11,02,02,34,22.10
2016,11,02,02,35,10.80
2016,11,02,02,36,18.30
2016,11,02,02,37,20.40
2016,11,02,02,38,18.60
2016,11,02,02,39,21.60
2016,11,02,02,40,21.20
2016,11,02,02,41,24.90
2016,11,02,02,42,16.30
2016,11,02,02,43,16.40
2016,11,02,02,44,22.00
2016,11,02,02,45,18.70
2016,11,02,02,46,21.80
2016,11,02,02,47,25.00
2016,11,02,02,48,23.30
2016,11,02,02,49,26.50
2016,11,02,02,50,23.90
2016,11,02,02,51,18.40
2016,11,02,02,52,18.20
2016,11,02,02,53,15.10
2016,11,02,02,54,15.90
2016,11,02,02,55,22.70
2016,11,02,02,56,22.20
2016,11,02,02,57,19.20
2016,11,02,02,58,20.40
2016,11,02,02,59,18.10
2016,11,02,03,00,21.10
2016,11,02,03,01,20.20
2016,11,02,03,02,21.30
2016,11,02,03,03,15.90
2016,11,02,03,04,22.50
2016,11,02,03,05,18.80
2016,11,02,03,06,17.60
2016,11,02,03,07,24.60
2016,11,02,03,08,20.10
2016,11,02,03,09,20.70
2016,11,02,03,10,18.90
2016,11,02,03,11,18.80
2016,11,02,03,12,28.30
2016,11,02,03,13,26.20
2016,11,02,03,14,18.90
2016,11,02,03,15,16.60
2016,11,02,03,16,12.50
2016,11,02,03,17,21.40
2016,11,02,03,18,21.30
2016,11,02,03,19,23.40
2016,11,02,03,20,27.60
2016,11,02,03,21,18.60
2016,11,02,03,22,21.60
2016,11,02,03,23,25.20
2016,11,02,03,24,18.90
2016,11,02,03,25,19.60
2016,11,02,03,26,26.40
2016,11,02,03,27,27.60
2016,11,02,03,28,27.20
2016,11,02,03,29,21.40
2016,11,02,03,30,19.30
2016,11,02,03,31,28.70
2016,11,02,03,32,23.90
2016,11,02,03,33,21.30
2016,11,02,03,34,23.70
2016,11,02,03,35,17.80
2016,11,02,03,36,21.10
2016,11,02,03,37,20.30
2016,11,02,03,38,23.20
2016,11,02,03,39,19.30
2016,11,02,03,40,20.70
2016,11,02,03,41,21.50
2016,11,02,03,42,14.10
2016,11,02,03,43,16.30
2016,11,02,03,44,14.50
2016,11,02,03,45,25.10
2016,11,02,03,46,19.70
2016,11,02,03,47,20.60
2016,11,02,03,48,17.20
2016,11,02,03,49,15.20
2016,11,02,03,50,19.50
2016,11,02,03,51,27.00
2016,11,02,03,52,20.70
2016,11,02,03,53,14.80
2016,11,02,03,54,17.40
2016,11,02,03,55,22.20
2016,11,02,03,56,16.20
2016,11,02,03,57,19.20
2016,11,02,03,58,17.60
2016,11,02,03,59,10.90
2016,11,02,04,00,16.10
2016,11,02,04,01,20.30
2016,11,02,04,02,16.90
2016,11,02,04,03,20.80
2016,11,02,04,04,16.30
2016,11,02,04,05,16.00
2016,11,02,04,06,21.10
2016,11,02,04,07,14.00
2016,11,02,04,08,20.20
2016,11,02,04,09,24.60
2016,11,02,04,10,25.00
2016,11,02,04,11,19.60
2016,11,02,04,12,17.50
2016,11,02,04,13,13.30
2016,11,02,04,14,15.00
2016,11,02,04,15,14.40
2016,11,02,04,16,25.30
2016,11,02,04,17,15.90
2016,11,02,04,18,24.50
2016,11,02,04,19,21.50
2016,11,02,04,20,19.90
2016,11,02,04,21,24.30
2016,11,02,04,22,17.50
2016,11,02,04,23,16.40
2016,11,02,04,24,13.90
2016,11,02,04,25,21.40
2016,11,02,04,26,15.70
2016,11,02,04,27,21.70
2016,11,02,04,28,17.80
2016,11,02,04,29,25.90
2016,11,02,04,30,20.00
2016,11,02,04,31,27.50
2016,11,02,04,32,19.80
2016,11,02,04,33,22.90
2016,11,02,04,34,18.90
2016,11,02,04,35,18.30
2016,11,02,04,36,17.70
2016,11,02,04,37,22.80
2016,11,02,04,38,18.80
2016,11,02,04,39,20.00
2016,11,02,04,40,16.30
2016,11,02,04,41,19.70
2016,11,02,04,42,24.80
2016,11,02,04,43,21.20
2016,11,02,04,44,15.40
2016,11,02,04,45,24.80
2016,11,02,04,46,23.00
2016,11,02,04,47,23.80
2016,11,02,04,48,19.80
2016,11,02,04,49,13.40
2016,11,02,04,50,11.30
2016,11,02,04,51,15.60
2016,11,02,04,52,13.40
2016,11,02,04,53,24.30
2016,11,02,04,54,23.10
2016,11,02,04,55,17.30
2016,11,02,04,56,20.80
2016,11,02,04,57,27.30
2016,11,02,04,58,24.10
2016,11,02,04,59,19.00
2016,11,02,05,00,14.40
2016,11,02,05,01,24.10
2016,11,02,05,02,24.00
2016,11,02,05,03,13.60
2016,11,02,05,04,18.60
2016,11,02,05,05,21.10
2016,11,02,05,06,18.30
2016,11,02,05,07,11.90
2016,11,02,05,08,21.30
2016,11,02,05,09,22.40
2016,11,02,05,10,16.80
2016,11,02,05,11,24.60
2016,11,02,05,12,22.10
2016,11,02,05,13,21.00
2016,11,02,05,14,24.60
2016,11,02,05,15,21.60
2016,11,02,05,16,24.60
2016,11,02,05,17,21.00
2016,11,02,05,18,17.70
2016,11,02,05,19,11.80
2016,11,02,05,20,19.30
2016,11,02,05,21,19.60
2016,11,02,05,22,18.80
2016,11,02,05,23,15.20
2016,11,02,05,24,24.10
2016,11,02,05,25,19.70
2016,11,02,05,26,21.00
2016,11,02,05,27,16.50
2016,11,02,05,28,18.70
2016,11,02,05,29,22.60
2016,11,02,05,30,25.00
2016,11,02,05,31,24.50
2016,11,02,05,32,20.20
2016,11,02,05,33,19.90
2016,11,02,05,34,22.50
2016,11,02,05,35,23.00
2016,11,02,05,36,23.40
2016,11,02,05,37,18.50
2016,11,02,05,38,19.60
2016,11,02,05,39,17.30
2016,11,02,05,40,26.40
2016,11,02,05,41,21.00
2016,11,02,05,42,23.60
2016,11,02,05,43,28.90
2016,11,02,05,44,26.40
2016,11,02,05,45,27.20
2016,11,02,05,46,20.80
2016,11,02,05,47,24.30
2016,11,02,05,48,30.90
2016,11,02,05,49,32.10
2016,11,02,05,50,31.90
2016,11,02,05,51,30.00
2016,11,02,05,52,26.80
2016,11,02,05,53,24.20
2016,11,02,05,54,24.70
2016,11,02,05,55,24.50
2016,11,02,05,56,31.30
2016,11,02,05,57,22.50
2016,11,02,05,58,29.40
2016,11,02,05,59,26.00
2016,11,02,06,00,31.10
2016,11,02,06,01,30.50
2016,11,02,06,02,22.80
2016,11,02,06,03,32.90
2016,11,02,06,04,28.20
2016,11,02,06,05,29.70
2016,11,02,06,06,30.30
2016,11,02,06,07,35.70
2016,11,02,06,08,30.70
2016,11,02,06,09,30.30
2016,11,02,06,10,24.60
2016,11,02,06,11,25.40
2016,11,02,06,12,30.20
2016,11,02,06,13,21.90
2016,11,02,06,14,26.30
2016,11,02,06,15,24.30
2016,11,02,06,16,25.70
2016,11,02,06,17,22.50
2016,11,02,06,18,24.60
2016,11,02,06,19,23.40
2016,11,02,06,20,21.20
2016,11,02,06,21,27.00
2016,11,02,06,22,28.60
2016,11,02,06,23,29.30
2016,11,02,06,24,29.60
2016,11,02,06,25,29.40
2016,11,02,06,26,25.10
2016,11,02,06,27,22.60
2016,11,02,06,28,19.70
2016,11,02,06,29,18.20
2016,11,02,06,30,19.60
2016,11,02,06,31,24.10
2016,11,02,06,32,20.60
2016,11,02,06,33,22.30
2016,11,02,06,34,27.00
2016,11,02,06,35,27.40
2016,11,02,06,36,27.60
2016,11,02,06,37,21.00
2016,11,02,06,38,24.60
2016,11,02,06,39,25.50
2016,11,02,06,40,24.50
2016,11,02,06,41,22.80
2016,11,02,06,42,20.80
2016,11,02,06,43,21.80
2016,11,02,06,44,27.20
2016,11,02,06,45,18.50
2016,11,02,06,46,19.90
2016,11,02,06,47,23.20
2016,11,02,06,48,17.10
2016,11,02,06,49,22.20
2016,11,02,06,50,24.00
2016,11,02,06,51,23.30
2016,11,02,06,52,22.50
2016,11,02,06,53,26.20
2016,11,02,06,54,24.30
2016,11,02,06,55,27.30
2016,11,02,06,56,19.40
2016,11,02,06,57,17.70
2016,11,02,06,58,21.90
2016,11,02,06,59,23.00
2016,11,02,07,00,13.80
2016,11,02,07,01,21.20
2016,11,02,07,02,24.30
2016,11,02,07,03,17.90
2016,11,02,07,04,21.90
2016,11,02,07,05,31.60
2016,11,02,07,06,21.60
2016,11,02,07,07,23.00
2016,11,02,07,08,25.30
2016,11,02,07,09,19.80
2016,11,02,07,10,18.40
2016,11,02,07,11,18.00
2016,11,02,07,12,21.20
2016,11,02,07,13,23.30
2016,11,02,07,14,18.40
2016,11,02,07,15,19.40
2016,11,02,07,16,27.50
2016,11,02,07,17,24.80
2016,11,02,07,18,20.80
2016,11,02,07,19,21.20
2016,11,02,07,20,16.40
2016,11,02,07,21,17.70
2016,11,02,07,22,18.80
2016,11,02,07,23,23.60
2016,11,02,07,24,27.10
2016,11,02,07,25,21.20
2016,11,02,07,26,19.80
2016,11,02,07,27,19.40
2016,11,02,07,28,26.80
2016,11,02,07,29,23.60
2016,11,02,07,30,19.70
2016,11,02,07,31,27.20
2016,11,02,07,32,20.20
2016,11,02,07,33,24.50
2016,11,02,07,34,25.20
2016,11,02,07,35,24.90
2016,11,02,07,36,23.10
2016,11,02,07,37,24.30
2016,11,02,07,38,30.20
2016,11,02,07,39,32.50
2016,11,02,07,40,28.50
2016,11,02,07,41,29.90
2016,11,02,07,42,27.40
2016,11,02,07,43,27.50
2016,11,02,07,44,29.30
2016,11,02,07,45,24.60
2016,11,02,07,46,23.40
2016,11,02,07,47,25.50
2016,11,02,07,48,26.80
2016,11,02,07,49,22.30
2016,11,02,07,50,23.60
2016,11,02,07,51,24.40
2016,11,02,07,52,32.00
2016,11,02,07,53,26.00
2016,11,02,07,54,18.30
2016,11,02,07,55,28.90
2016,11,02,07,56,28.30
2016,11,02,07,57,27.30
2016,11,02,07,58,21.00
2016,11,02,07,59,30.70
2016,11,02,08,00,22.30
2016,11,02,08,01,24.30
2016,11,02,08,02,20.70
2016,11,02,08,03,27.20
2016,11,02,08,04,21.70
2016,11,02,08,05,26.20
2016,11,02,08,06,24.90
2016,11,02,08,07,27.80
2016,11,02,08,08,30.20
2016,11,02,08,09,37.50
2016,11,02,08,10,23.60
2016,11,02,08,11,33.20
2016,11,02,08,12,26.50
2016,11,02,08,13,25.90
2016,11,02,08,14,29.40
2016,11,02,08,15,31.10
2016,11,02,08,16,32.30
2016,11,02,08,17,28.30
2016,11,02,08,18,26.00
2016,11,02,08,19,31.90
2016,11,02,08,20,33.10
2016,11,02,08,21,27.20
2016,11,02,08,22,27.30
2016,11,02,08,23,23.70
2016,11,02,08,24,30.40
2016,11,02,08,25,29.00
2016,11,02,08,26,34.70
2016,11,02,08,27,29.80
2016,11,02,08,28,25.70
2016,11,02,08,29,31.80
2016,11,02,08,30,25.90
2016,11,02,08,31,31.00
2016,11,02,08,32,34.90
2016,11,02,08,33,28.10
2016,11,02,08,34,31.40
2016,11,02,08,35,31.10
2016,11,02,08,36,35.50
2016,11,02,08,37,34.80
2016,11,02,08,38,24.90
2016,11,02,08,39,28.00
2016,11,02,08,40,33.60
2016,11,02,08,41,27.00
2016,11,02,08,42,26.60
2016,11,02,08,43,31.00
2016,11,02,08,44,29.10
2016,11,02,08,45,31.00
2016,11,02,08,46,26.10
2016,11,02,08,47,25.30
2016,11,02,08,48,34.50
2016,11,02,08,49,43.40
2016,11,02,08,50,40.20
2016,11,02,08,51,36.50
2016,11,02,08,52,36.30
2016,11,02,08,53,43.30
2016,11,02,08,54,34.00
2016,11,02,08,55,38.40
2016,11,02,08,56,32.10
2016,11,02,08,57,43.20
2016,11,02,08,58,33.50
2016,11,02,08,59,36.00
2016,11,02,09,00,32.90
2016,11,02,09,01,29.10
2016,11,02,09,02,31.90
2016,11,02,09,03,29.50
2016,11,02,09,04,38.30
2016,11,02,09,05,35.20
2016,11,02,09,06,30.20
2016,11,02,09,07,36.60
2016,11,02,09,08,40.40
2016,11,02,09,09,34.00
2016,11,02,09,10,28.10
2016,11,02,09,11,23.60
2016,11,02,09,12,34.40
2016,11,02,09,13,33.90
2016,11,02,09,14,37.20
2016,11,02,09,15,33.90
2016,11,02,09,16,31.10
2016,11,02,09,17,39.40
2016,11,02,09,18,33.00
2016,11,02,09,19,31.70
2016,11,02,09,20,29.90
2016,11,02,09,21,31.30
2016,11,02,09,22,37.70
2016,11,02,09,23,37.80
2016,11,02,09,24,29.00
2016,11,02,09,25,25.80
2016,11,02,09,26,33.60
2016,11,02,09,27,38.20
2016,11,02,09,28,38.90
2016,11,02,09,29,34.50
2016,11,02,09,30,33.10
2016,11,02,09,31,36.80
2016,11,02,09,32,33.40
2016,11,02,09,33,31.10
2016,11,02,09,34,26.50
2016,11,02,09,35,30.00
2016,11,02,09,36,33.60
2016,11,02,09,37,32.40
2016,11,02,09,38,30.30
2016,11,02,09,39,33.50
2016,11,02,09,40,38.10
2016,11,02,09,41,38.60
2016,11,02,09,42,39.40
2016,11,02,09,43,27.80
2016,11,02,09,44,32.40
2016,11,02,09,45,24.60
2016,11,02,09,46,31.20
2016,11,02,09,47,31.90
2016,11,02,09,48,32.40
2016,11,02,09,49,39.40
2016,11,02,09,50,30.20
2016,11,02,09,51,31.30
2016,11,02,09,52,31.80
2016,11,02,09,53,30.80
2016,11,02,09,54,33.20
2016,11,02,09,55,48.30
2016,11,02,09,56,31.90
2016,11,02,09,57,23.90
2016,11,02,09,58,20.00
2016,11,02,09,59,31.20
2016,11,02,10,00,27.40
2016,11,02,10,01,35.80
2016,11,02,10,02,30.90
2016,11,02,10,03,31.10
2016,11,02,10,04,29.00
2016,11,02,10,05,36.40
2016,11,02,10,06,32.60
2016,11,02,10,07,33.00
2016,11,02,10,08,30.60
2016,11,02,10,09,34.20
2016,11,02,10,10,26.60
2016,11,02,10,11,32.50
2016,11,02,10,12,25.50
2016,11,02,10,13,35.30
2016,11,02,10,14,33.60
2016,11,02,10,15,35.20
2016,11,02,10,16,31.50
2016,11,02,10,17,31.10
2016,11,02,10,18,32.30
2016,11,02,10,19,34.50
2016,11,02,10,20,34.40
2016,11,02,10,21,27.60
2016,11,02,10,22,29.50
2016,11,02,10,23,33.90
2016,11,02,10,24,30.70
2016,11,02,10,25,34.60
2016,11,02,10,26,32.70
2016,11,02,10,27,33.50
2016,11,02,10,28,30.00
2016,11,02,10,29,28.30
2016,11,02,10,30,25.80
2016,11,02,10,31,35.50
2016,11,02,10,32,24.40
2016,11,02,10,33,29.70
2016,11,02,10,34,25.20
2016,11,02,10,35,31.60
2016,11,02,10,36,27.00
2016,11,02,10,37,28.70
2016,11,02,10,38,25.70
2016,11,02,10,39,28.70
2016,11,02,10,40,25.10
2016,11,02,10,41,28.00
2016,11,02,10,42,32.80
2016,11,02,10,43,25.90
2016,11,02,10,44,27.30
2016,11,02,10,45,31.10
2016,11,02,10,46,27.40
2016,11,02,10,47,39.30
2016,11,02,10,48,38.80
2016,11,02,10,49,27.40
2016,11,02,10,50,36.90
2016,11,02,10,51,29.00
2016,11,02,10,52,35.90
2016,11,02,10,53,34.60
2016,11,02,10,54,30.70
2016,11,02,10,55,34.00
2016,11,02,10,56,31.60
2016,11,02,10,57,32.30
2016,11,02,10,58,44.50
2016,11,02,10,59,23.70
2016,11,02,11,00,28.60
2016,11,02,11,01,28.00
2016,11,02,11,02,34.40
2016,11,02,11,03,26.40
2016,11,02,11,04,28.20
2016,11,02,11,05,31.90
2016,11,02,11,06,29.80
2016,11,02,11,07,27.00
2016,11,02,11,08,30.00
2016,11,02,11,09,29.90
2016,11,02,11,10,29.10
2016,11,02,11,11,27.10
2016,11,02,11,12,31.30
2016,11,02,11,13,30.10
2016,11,02,11,14,28.30
2016,11,02,11,15,18.70
2016,11,02,11,16,25.10
2016,11,02,11,17,33.10
2016,11,02,11,18,27.80
2016,11,02,11,19,18.10
2016,11,02,11,20,38.90
2016,11,02,11,21,33.30
2016,11,02,11,22,33.40
2016,11,02,11,23,29.30
2016,11,02,11,24,27.00
2016,11,02,11,25,35.00
2016,11,02,11,26,29.00
2016,11,02,11,27,26.20
2016,11,02,11,28,34.90
2016,11,02,11,29,31.10
2016,11,02,11,30,33.70
2016,11,02,11,31,29.10
2016,11,02,11,32,26.50
2016,11,02,11,33,33.90
2016,11,02,11,34,27.80
2016,11,02,11,35,30.30
2016,11,02,11,36,29.00
2016,11,02,11,37,29.90
2016,11,02,11,38,27.20
2016,11,02,11,39,21.20
2016,11,02,11,40,20.80
2016,11,02,11,41,25.70
2016,11,02,11,42,27.80
2016,11,02,11,43,21.40
2016,11,02,11,44,25.00
2016,11,02,11,45,33.60
2016,11,02,11,46,31.40
2016,11,02,11,47,31.20
2016,11,02,11,48,36.30
2016,11,02,11,49,28.30
2016,11,02,11,50,29.00
2016,11,02,11,51,27.80
2016,11,02,11,52,31.80
2016,11,02,11,53,26.30
2016,11,02,11,54,21.40
2016,11,02,11,55,29.90
2016,11,02,11,56,28.30
2016,11,02,11,57,31.20
2016,11,02,11,58,32.10
2016,11,02,11,59,35.30
2016,11,02,12,00,36.40
2016,11,02,12,01,33.50
2016,11,02,12,02,28.80
2016,11,02,12,03,30.90
2016,11,02,12,04,25.50
2016,11,02,12,05,33.00
2016,11,02,12,06,27.60
2016,11,02,12,07,28.20
2016,11,02,12,08,32.30
2016,11,02,12,09,37.30
2016,11,02,12,10,26.80
2016,11,02,12,11,30.70
2016,11,02,12,12,31.10
2016,11,02,12,13,31.50
2016,11,02,12,14,30.70
2016,11,02,12,15,31.00
2016,11,02,12,16,31.20
2016,11,02,12,17,32.00
2016,11,02,12,18,34.20
2016,11,02,12,19,26.60
2016,11,02,12,20,27.90
2016,11,02,12,21,19.60
2016,11,02,12,22,28.00
2016,11,02,12,23,26.90
2016,11,02,12,24,31.50
2016,11,02,12,25,31.60
2016,11,02,12,26,32.90
2016,11,02,12,27,33.20
2016,11,02,12,28,32.00
2016,11,02,12,29,31.10
2016,11,02,12,30,26.10
2016,11,02,12,31,25.20
2016,11,02,12,32,23.20
2016,11,02,12,33,29.30
2016,11,02,12,34,24.50
2016,11,02,12,35,35.20
2016,11,02,12,36,25.50
2016,11,02,12,37,31.70
2016,11,02,12,38,38.90
2016,11,02,12,39,33.10
2016,11,02,12,40,24.80
2016,11,02,12,41,37.60
2016,11,02,12,42,29.40
2016,11,02,12,43,30.30
2016,11,02,12,44,26.40
2016,11,02,12,45,24.70
2016,11,02,12,46,31.40
2016,11,02,12,47,32.90
2016,11,02,12,48,39.30
2016,11,02,12,49,32.80
2016,11,02,12,50,23.80
2016,11,02,12,51,30.70
2016,11,02,12,52,39.90
2016,11,02,12,53,27.40
2016,11,02,12,54,27.90
2016,11,02,12,55,27.90
2016,11,02,12,56,27.90
2016,11,02,12,57,27.10
2016,11,02,12,58,25.30
2016,11,02,12,59,29.30
2016,11,02,13,00,23.60
2016,11,02,13,01,32.70
2016,11,02,13,02,27.40
2016,11,02,13,03,31.30
2016,11,02,13,04,24.10
2016,11,02,13,05,30.80
2016,11,02,13,06,24.50
2016,11,02,13,07,25.30
2016,11,02,13,08,18.60
2016,11,02,13,09,29.80
2016,11,02,13,10,30.60
2016,11,02,13,11,32.30
2016,11,02,13,12,30.20
2016,11,02,13,13,29.40
2016,11,02,13,14,32.30
2016,11,02,13,15,32.80
2016,11,02,13,16,26.90
2016,11,02,13,17,27.60
2016,11,02,13,18,28.50
2016,11,02,13,19,24.10
2016,11,02,13,20,28.80
2016,11,02,13,21,22.40
2016,11,02,13,22,27.40
2016,11,02,13,23,26.60
2016,11,02,13,24,21.80
2016,11,02,13,25,21.30
2016,11,02,13,26,22.40
2016,11,02,13,27,28.10
2016,11,02,13,28,26.90
2016,11,02,13,29,31.30
2016,11,02,13,30,25.10
2016,11,02,13,31,26.30
2016,11,02,13,32,19.40
2016,11,02,13,33,19.00
2016,11,02,13,34,29.60
2016,11,02,13,35,27.30
2016,11,02,13,36,27.00
2016,11,02,13,37,24.30
2016,11,02,13,38,24.10
2016,11,02,13,39,18.90
2016,11,02,13,40,20.80
2016,11,02,13,41,13.60
2016,11,02,13,42,24.50
2016,11,02,13,43,25.40
2016,11,02,13,44,24.60
2016,11,02,13,45,24.00
2016,11,02,13,46,25.30
2016,11,02,13,47,20.40
2016,11,02,13,48,19.90
2016,11,02,13,49,24.50
2016,11,02,13,50,30.90
2016,11,02,13,51,18.60
2016,11,02,13,52,25.60
2016,11,02,13,53,23.70
2016,11,02,13,54,18.60
2016,11,02,13,55,29.60
2016,11,02,13,56,26.20
2016,11,02,13,57,19.30
2016,11,02,13,58,26.00
2016,11,02,13,59,24.60
2016,11,02,14,00,28.40
2016,11,02,14,01,21.90
2016,11,02,14,02,23.50
2016,11,02,14,03,31.10
2016,11,02,14,04,28.60
2016,11,02,14,05,18.10
2016,11,02,14,06,22.60
2016,11,02,14,07,22.20
2016,11,02,14,08,23.20
2016,11,02,14,09,20.20
2016,11,02,14,10,23.10
2016,11,02,14,11,23.20
2016,11,02,14,12,26.30
2016,11,02,14,13,22.60
2016,11,02,14,14,18.30
2016,11,02,14,15,24.10
2016,11,02,14,16,25.60
2016,11,02,14,17,27.20
2016,11,02,14,18,22.80
2016,11,02,14,19,24.20
2016,11,02,14,20,30.70
2016,11,02,14,21,31.00
2016,11,02,14,22,15.40
2016,11,02,14,23,19.40
2016,11,02,14,24,23.60
2016,11,02,14,25,15.60
2016,11,02,14,26,18.50
2016,11,02,14,27,20.70
2016,11,02,14,28,21.70
2016,11,02,14,29,18.90
2016,11,02,14,30,32.80
2016,11,02,14,31,24.60
2016,11,02,14,32,20.80
2016,11,02,14,33,20.60
2016,11,02,14,34,19.30
2016,11,02,14,35,29.30
2016,11,02,14,36,23.10
2016,11,02,14,37,29.60
2016,11,02,14,38,29.10
2016,11,02,14,39,21.50
2016,11,02,14,40,25.10
2016,11,02,14,41,24.60
2016,11,02,14,42,24.60
2016,11,02,14,43,28.20
2016,11,02,14,44,29.50
2016,11,02,14,45,25.80
2016,11,02,14,46,32.10
2016,11,02,14,47,24.60
2016,11,02,14,48,19.90
2016,11,02,14,49,28.70
2016,11,02,14,50,29.50
2016,11,02,14,51,25.00
2016,11,02,14,52,13.30
2016,11,02,14,53,27.40
2016,11,02,14,54,32.80
2016,11,02,14,55,31.50
2016,11,02,14,56,29.00
2016,11,02,14,57,22.80
2016,11,02,14,58,27.40
2016,11,02,14,59,32.90
2016,11,02,15,00,33.20
2016,11,02,15,01,27.00
2016,11,02,15,02,17.90
2016,11,02,15,03,21.40
2016,11,02,15,04,27.40
2016,11,02,15,05,24.00
2016,11,02,15,06,29.00
2016,11,02,15,07,22.00
2016,11,02,15,08,27.80
2016,11,02,15,09,28.50
2016,11,02,15,10,21.70
2016,11,02,15,11,34.00
2016,11,02,15,12,27.70
2016,11,02,15,13,18.50
2016,11,02,15,14,27.30
2016,11,02,15,15,25.40
2016,11,02,15,16,25.20
2016,11,02,15,17,32.70
2016,11,02,15,18,33.00
2016,11,02,15,19,17.50
2016,11,02,15,20,22.00
2016,11,02,15,21,27.40
2016,11,02,15,22,32.60
2016,11,02,15,23,25.50
2016,11,02,15,24,28.50
2016,11,02,15,25,23.00
2016,11,02,15,26,23.20
2016,11,02,15,27,32.50
2016,11,02,15,28,25.10
2016,11,02,15,29,39.60
2016,11,02,15,30,34.00
2016,11,02,15,31,31.10
2016,11,02,15,32,28.60
2016,11,02,15,33,29.40
2016,11,02,15,34,30.70
2016,11,02,15,35,38.60
2016,11,02,15,36,25.90
2016,11,02,15,37,26.60
2016,11,02,15,38,25.00
2016,11,02,15,39,23.60
2016,11,02,15,40,32.40
2016,11,02,15,41,35.00
2016,11,02,15,42,33.20
2016,11,02,15,43,30.20
2016,11,02,15,44,35.60
2016,11,02,15,45,27.80
2016,11,02,15,46,29.80
2016,11,02,15,47,29.60
2016,11,02,15,48,32.70
2016,11,02,15,49,32.50
2016,11,02,15,50,29.10
2016,11,02,15,51,23.80
2016,11,02,15,52,24.70
2016,11,02,15,53,28.20
2016,11,02,15,54,27.40
2016,11,02,15,55,32.70
2016,11,02,15,56,27.80
2016,11,02,15,57,19.60
2016,11,02,15,58,25.90
2016,11,02,15,59,19.50
2016,11,02,16,00,33.80
2016,11,02,16,01,32.90
2016,11,02,16,02,36.20
2016,11,02,16,03,29.00
2016,11,02,16,04,30.40
2016,11,02,16,05,28.40
2016,11,02,16,06,30.20
2016,11,02,16,07,30.10
2016,11,02,16,08,34.30
2016,11,02,16,09,23.00
2016,11,02,16,10,18.10
2016,11,02,16,11,24.00
2016,11,02,16,12,29.80
2016,11,02,16,13,34.00
2016,11,02,16,14,32.20
2016,11,02,16,15,26.60
2016,11,02,16,16,25.60
2016,11,02,16,17,22.50
2016,11,02,16,18,32.40
2016,11,02,16,19,33.50
2016,11,02,16,20,28.60
2016,11,02,16,21,26.30
2016,11,02,16,22,25.20
2016,11,02,16,23,24.60
2016,11,02,16,24,27.00
2016,11,02,16,25,27.60
2016,11,02,16,26,25.20
2016,11,02,16,27,24.30
2016,11,02,16,28,29.10
2016,11,02,16,29,37.30
2016,11,02,16,30,35.20
2016,11,02,16,31,26.10
2016,11,02,16,32,32.30
2016,11,02,16,33,30.90
2016,11,02,16,34,26.00
2016,11,02,16,35,34.00
2016,11,02,16,36,25.60
2016,11,02,16,37,26.30
2016,11,02,16,38,22.00
2016,11,02,16,39,28.60
2016,11,02,16,40,34.40
2016,11,02,16,41,28.50
2016,11,02,16,42,22.30
2016,11,02,16,43,23.50
2016,11,02,16,44,27.30
2016,11,02,16,45,33.30
2016,11,02,16,46,28.00
2016,11,02,16,47,26.00
2016,11,02,16,48,26.40
2016,11,02,16,49,31.70
2016,11,02,16,50,29.50
2016,11,02,16,51,29.40
2016,11,02,16,52,30.30
2016,11,02,16,53,31.40
2016,11,02,16,54,26.20
2016,11,02,16,55,31.10
2016,11,02,16,56,34.40
2016,11,02,16,57,40.40
2016,11,02,16,58,34.90
2016,11,02,16,59,32.70
2016,11,02,17,00,30.30
2016,11,02,17,01,24.90
2016,11,02,17,02,33.30
2016,11,02,17,03,24.90
2016,11,02,17,04,28.00
2016,11,02,17,05,28.10
2016,11,02,17,06,29.70
2016,11,02,17,07,30.20
2016,11,02,17,08,24.10
2016,11,02,17,09,25.70
2016,11,02,17,10,24.50
2016,11,02,17,11,16.90
2016,11,02,17,12,26.20
2016,11,02,17,13,26.90
2016,11,02,17,14,32.30
2016,11,02,17,15,31.00
2016,11,02,17,16,28.90
2016,11,02,17,17,36.70
2016,11,02,17,18,28.90
2016,11,02,17,19,26.10